Location: Austin
(30.3000°N, 97.7500°W)
Time: 00:15:33
(UTC-05:00)

DEBRIS - Pass Details

Date: 06 May 2026
Orbit: 302 x 14425 km, 49.4° (Epoch: 13 May)

Event Time Altitude Azimuth Distance (km) Brightness Sun altitude
Rises 20:32:39 0° 237° (WSW) 2,367 6.6 -4.9°
Reaches altitude 10° 20:34:50 10° 245° (WSW) 1,234 5.3 -5.4°
Maximum altitude 20:36:58 42° 321° (NW) 447 3.0 -5.8°
Drops below altitude 10° 20:39:18 10° 36° (NE) 1,345 4.7 -6.2°
Sets 20:41:49 0° 44° (NE) 2,650 6.1 -6.7°
